[[{"header":{"parameterUnit":"m.s-1","parameterCategory":1,"la1":30.2991,"la2":30.254,"lo1":-89.0895,"lo2":-89.0444,"dy":0.0017,"dx":0.0017,"nx":28,"ny":28,"refTime":"2024-03-29T09:00:00:Z","depth":0,"parameterNumber":2,"parameterNumberName":"U-component_of_WINDS"},"data":[0,0,0,0,0,0,0,0,0,0,0,0,0,0,0,0,0,0,0,0,0,0,0,0,0,0,0,0,0,0,0,0,0,0,0,0,0,0,0,0,0,0,0,0,0,0,0,0,0,0,0,0,0,0,0,0,0,0,0.2846,0.2845,0,0.2819,0.2819,0.2818,0.28,0.28,0.28,0.28,0.2773,0.2773,0.2772,0,0,0,0,0,0,0,0,0,0,0,0,0,0.2882,0.2881,0.2846,0.2845,0.2845,0.2819,0.2819,0.2818,0.28,0.28,0.28,0.28,0.2774,0.2773,0.2772,0,0,0,0,0,0,0,0,0,0,0,0,0,0.2862,0.2881,0.2846,0.2833,0.2831,0.2819,0.2819,0.2818,0.28,0.28,0.28,0.28,0.2774,0.2773,0.2772,0.2771,0,0,0.277,0.2769,0,0,0,0,0,0,0,0,0.2863,0.286,0.2835,0.2834,0.2832,0.2813,0.2822,0.2802,0.28,0.2812,0.28,0.28,0.2787,0.2785,0.278,0.277,0.2769,0.2769,0.2769,0.2769,0.2768,0,0,0,0,0,0,0,0.2864,0.2861,0.2835,0.2835,0.2833,0.2829,0.2826,0.2818,0.2801,0.2811,0.281,0.2807,0.2786,0.2781,0.278,0.2768,0.277,0.2769,0.2768,0.2768,0.2755,0.2755,0,0,0,0,0,0,0.2868,0.2863,0.2836,0.2834,0.2847,0.2828,0.2825,0.2819,0.2801,0.2798,0.2807,0.2806,0.2783,0.2781,0.2779,0.2776,0.2769,0.2768,0.2767,0.2755,0.2755,0.2755,0,0,0,0,0,0,0.2868,0.2865,0.2837,0.2848,0.2844,0.2828,0.2822,0.2819,0.2814,0.2798,0.2795,0.2805,0.2782,0.278,0.2773,0.2775,0.2767,0.2767,0.2755,0.2755,0.2755,0.277,0,0,0,0,0,0,0.287,0.2866,0.2865,0.2848,0.2844,0.2832,0.2822,0.2818,0.2812,0.2811,0.2795,0.2793,0.2782,0.2774,0.2772,0.2773,0.2766,0.2754,0.2755,0.2755,0.2769,0.2771,0.2772,0,0,0,0,0,0.2871,0.2871,0.2865,0.2862,0.2842,0.2832,0.2829,0.2817,0.2813,0.2812,0.2801,0.2793,0.2775,0.2774,0.2771,0.2772,0.2754,0.2755,0.2755,0.2769,0.2771,0.2772,0,0,0,0,0,0,0.2888,0.2868,0.2862,0.2856,0.2846,0.2829,0.2827,0.2819,0.281,0.2809,0.2795,0.2791,0.2786,0.2778,0.2777,0.277,0.2764,0.2763,0.2775,0.2776,0.2778,0.278,0.2765,0,0,0,0,0,0.2891,0.2884,0.2867,0.2864,0.2859,0.2844,0.2839,0.283,0.2819,0.2815,0.2804,0.2794,0.2786,0.2781,0.2772,0.2768,0.2765,0.2768,0.2769,0.277,0.277,0.2768,0.2769,0.2757,0.2757,0.2757,0,0,0.2898,0.2886,0.2882,0.2867,0.2858,0.2851,0.284,0.2834,0.2828,0.2814,0.2806,0.2798,0.2786,0.278,0.2777,0.2774,0.2773,0.2771,0.2772,0.2771,0.2768,0.2769,0.277,0.2757,0.2757,0.2757,0,0,0.2906,0.2896,0.2892,0.2883,0.287,0.286,0.2859,0.2843,0.2837,0.2829,0.2818,0.2812,0.2798,0.279,0.2784,0.2788,0.2781,0.2786,0.2793,0.2791,0.2792,0.2793,0.2794,0.2795,0.2786,0.2786,0.2786,0,0.2916,0.2905,0.2891,0.2885,0.2878,0.2864,0.286,0.2852,0.2837,0.2833,0.2829,0.2812,0.2802,0.2795,0.2796,0.2791,0.279,0.2788,0.2793,0.2793,0.2794,0.2795,0.2796,0.2787,0.2787,0.2787,0.2787,0,0.2918,0.291,0.2908,0.2893,0.2887,0.2882,0.2867,0.2862,0.2854,0.2845,0.2837,0.2826,0.2815,0.2812,0.2804,0.2803,0.2801,0.2795,0.2789,0.2796,0.2797,0.2798,0.2788,0.2788,0.2788,0.2788,0,0,0.2936,0.2913,0.2913,0.2906,0.289,0.2884,0.2878,0.2867,0.2863,0.2853,0.2848,0.2836,0.283,0.2824,0.2815,0.2813,0.2817,0.2807,0.2806,0.2809,0.2815,0.282,0.2821,0.2812,0.2812,0.2812,0.2816,0,0.2942,0.2931,0.2918,0.2911,0.2904,0.2891,0.2886,0.2875,0.2866,0.2859,0.2849,0.2842,0.2834,0.283,0.2827,0.2817,0.2818,0.2817,0.2807,0.2807,0.2811,0.2821,0.2826,0.2831,0.2817,0.2817,0.2817,0,0.2947,0.2937,0.293,0.2914,0.291,0.2906,0.2894,0.2888,0.2876,0.2869,0.2862,0.2852,0.2846,0.284,0.2831,0.283,0.2825,0.282,0.282,0.2818,0.2812,0.282,0.2832,0.2833,0.2817,0.2817,0.2817,0,0.2962,0.2946,0.294,0.2934,0.2915,0.2913,0.2905,0.2892,0.2886,0.2877,0.2873,0.2863,0.2857,0.2849,0.2837,0.2834,0.283,0.2823,0.2824,0.2825,0.2824,0.2824,0.2835,0.2821,0.2821,0.2821,0.2821,0,0.297,0.2965,0.2946,0.2942,0.2936,0.2922,0.2918,0.2909,0.2898,0.2892,0.288,0.2875,0.2859,0.2852,0.2843,0.2837,0.2834,0.2829,0.2827,0.283,0.2831,0.2827,0.2826,0.2821,0.2821,0.2821,0.2821,0,0.2985,0.2972,0.2963,0.2946,0.2942,0.2939,0.2924,0.292,0.291,0.2903,0.29,0.2885,0.2876,0.2863,0.2851,0.2844,0.284,0.2836,0.2844,0.2842,0.2844,0.2844,0.2853,0.2854,0.2839,0.284,0.284,0,0.2991,0.2987,0.2969,0.2964,0.2957,0.2949,0.2942,0.2928,0.2922,0.2908,0.2905,0.2896,0.2887,0.2873,0.2861,0.2852,0.2848,0.2851,0.2846,0.285,0.2848,0.2848,0.2847,0.2853,0.2853,0.2853,0.2853,0,0.3003,0.2996,0.2987,0.2976,0.2968,0.2959,0.2949,0.2946,0.2929,0.2923,0.2914,0.2907,0.2894,0.2884,0.2873,0.2865,0.2857,0.2855,0.2855,0.2858,0.2863,0.286,0.2847,0.2855,0.2855,0.2855,0.2855,0.2854,0.3013,0.3009,0.2996,0.2987,0.2977,0.2968,0.2963,0.2952,0.2944,0.2932,0.2924,0.2915,0.2903,0.2887,0.288,0.2873,0.2869,0.2869,0.2869,0.2869,0.287,0.2864,0.287,0.287,0.287,0.287,0.287,0,0.3025,0.3015,0.3006,0.2993,0.2985,0.2977,0.2966,0.296,0.2952,0.2941,0.2933,0.2922,0.2912,0.29,0.2889,0.2886,0.2882,0.2884,0.2884,0.2882,0.2874,0.2875,0.2887,0.2887,0.2887,0.2887,0.2887,0.2887,0.3029,0.3022,0.3014,0.3002,0.2993,0.2983,0.2977,0.2969,0.296,0.2949,0.294,0.2932,0.292,0.2909,0.29,0.2897,0.2893,0.2897,0.2892,0.2884,0.2883,0.2881,0.2882,0.2896,0.2896,0.2901,0.2901,0.2901]},{"header":{"parameterUnit":"m.s-1","parameterCategory":1,"la1":30.2991,"la2":30.254,"lo1":-89.0895,"lo2":-89.0444,"dy":0.0017,"dx":0.0017,"nx":28,"ny":28,"refTime":"2024-03-29T09:00:00:Z","depth":0,"parameterNumber":3,"parameterNumberName":"V-component_of_WINDS"},"data":[0,0,0,0,0,0,0,0,0,0,0,0,0,0,0,0,0,0,0,0,0,0,0,0,0,0,0,0,0,0,0,0,0,0,0,0,0,0,0,0,0,0,0,0,0,0,0,0,0,0,0,0,0,0,0,0,0,0,2.7098,2.7099,0,2.7191,2.7193,2.7194,2.7241,2.7241,2.7241,2.7241,2.7336,2.7339,2.7341,0,0,0,0,0,0,0,0,0,0,0,0,0,2.6959,2.6962,2.7097,2.7099,2.71,2.7191,2.7193,2.7194,2.7241,2.7241,2.7241,2.7241,2.7335,2.7338,2.7341,0,0,0,0,0,0,0,0,0,0,0,0,0,2.7033,2.6962,2.7097,2.7134,2.7139,2.7191,2.7193,2.7194,2.7241,2.7241,2.7241,2.7241,2.7334,2.7338,2.7342,2.7364,0,0,2.7353,2.7355,0,0,0,0,0,0,0,0,2.7029,2.7038,2.7128,2.7132,2.7137,2.7205,2.7179,2.7251,2.7241,2.7202,2.7241,2.7241,2.7292,2.73,2.7317,2.7369,2.7373,2.7354,2.7356,2.7358,2.7359,0,0,0,0,0,0,0,2.7023,2.7034,2.7135,2.7129,2.7135,2.7146,2.7157,2.7193,2.7246,2.7205,2.7209,2.722,2.7295,2.7313,2.732,2.7374,2.7354,2.7357,2.7359,2.7361,2.745,2.745,0,0,0,0,0,0,2.7012,2.7029,2.7132,2.7138,2.7082,2.7149,2.7161,2.7183,2.7246,2.7255,2.722,2.7222,2.7307,2.7315,2.7323,2.7355,2.7358,2.7361,2.7363,2.745,2.745,2.745,0,0,0,0,0,0,2.7009,2.7021,2.7128,2.7085,2.7099,2.7151,2.7176,2.7185,2.7203,2.7256,2.7266,2.7229,2.7307,2.7318,2.7354,2.7358,2.7363,2.7366,2.745,2.745,2.745,2.7416,0,0,0,0,0,0,2.7005,2.702,2.7028,2.7084,2.7101,2.7157,2.7176,2.7186,2.721,2.7213,2.7267,2.7276,2.7308,2.7348,2.7358,2.7364,2.7369,2.745,2.745,2.745,2.7417,2.7415,2.7414,0,0,0,0,0,2.7,2.7015,2.7029,2.7041,2.7113,2.7157,2.7167,2.7203,2.721,2.7219,2.7254,2.7275,2.7356,2.7351,2.7363,2.737,2.745,2.745,2.745,2.7418,2.7416,2.7414,0,0,0,0,0,0,2.6957,2.7022,2.7039,2.7072,2.7109,2.7165,2.7178,2.7199,2.7235,2.7236,2.728,2.7292,2.7324,2.7351,2.7344,2.7395,2.7405,2.7408,2.7377,2.7375,2.7373,2.7366,2.7372,0,0,0,0,0,2.6952,2.6982,2.7037,2.7061,2.7079,2.7125,2.7146,2.7171,2.721,2.7226,2.7263,2.73,2.7335,2.7356,2.7391,2.7422,2.7434,2.7432,2.743,2.7428,2.743,2.7449,2.7449,2.7451,2.7451,2.7451,0,0,2.694,2.698,2.6996,2.7054,2.7085,2.7116,2.7138,2.7169,2.7192,2.7231,2.7267,2.7296,2.7341,2.7374,2.7391,2.7397,2.7433,2.7429,2.7427,2.743,2.745,2.7449,2.7449,2.7452,2.7452,2.7452,0,0,2.6935,2.6968,2.6992,2.7024,2.7071,2.7102,2.7108,2.7162,2.7182,2.722,2.725,2.7278,2.7336,2.7367,2.739,2.7399,2.742,2.7409,2.7399,2.7418,2.7418,2.7418,2.7421,2.7422,2.7411,2.741,2.741,0,2.6915,2.6962,2.7002,2.7032,2.7056,2.7094,2.7119,2.7147,2.7203,2.722,2.7226,2.7301,2.7333,2.7376,2.7378,2.7395,2.7404,2.7403,2.7414,2.7415,2.7416,2.742,2.7421,2.7409,2.7409,2.7409,2.7409,0,2.6936,2.6968,2.6982,2.7036,2.7063,2.709,2.7133,2.7155,2.7179,2.7209,2.7248,2.7288,2.7332,2.7344,2.7367,2.739,2.7393,2.7406,2.7417,2.7413,2.7418,2.742,2.7407,2.7407,2.7408,2.7408,0,0,2.6906,2.6982,2.6987,2.7012,2.7068,2.7094,2.7123,2.7167,2.7185,2.7223,2.7249,2.7298,2.7312,2.7338,2.7365,2.7381,2.7386,2.7393,2.7394,2.739,2.7415,2.7405,2.7406,2.74,2.7401,2.7401,2.7412,0,2.6909,2.6963,2.7,2.704,2.7071,2.7108,2.7133,2.7171,2.72,2.7231,2.7264,2.7298,2.7312,2.7329,2.7347,2.7381,2.7392,2.7381,2.7425,2.7426,2.7413,2.7408,2.7397,2.7405,2.7414,2.7414,2.7414,0,2.692,2.6957,2.7,2.7054,2.7069,2.7091,2.7135,2.7164,2.7207,2.7227,2.7258,2.7285,2.7318,2.7326,2.7373,2.7365,2.7385,2.7405,2.7407,2.7412,2.742,2.7414,2.7408,2.741,2.7417,2.7417,2.7417,0,2.6894,2.6955,2.699,2.701,2.7074,2.7089,2.7116,2.716,2.7184,2.7222,2.7239,2.728,2.7302,2.7334,2.7372,2.7374,2.7415,2.7426,2.7433,2.7432,2.744,2.7439,2.7437,2.7452,2.7452,2.7452,2.7452,0,2.6894,2.6919,2.6979,2.7,2.703,2.7072,2.71,2.7131,2.7169,2.7197,2.7231,2.7257,2.7305,2.7337,2.7367,2.7401,2.7411,2.7429,2.7437,2.7426,2.7424,2.744,2.744,2.7453,2.7452,2.7452,2.7452,0,2.687,2.6911,2.6951,2.7008,2.7023,2.7043,2.7092,2.7114,2.7146,2.7181,2.7192,2.7241,2.7281,2.7322,2.7375,2.7395,2.7428,2.7439,2.7414,2.7418,2.7423,2.7422,2.7432,2.7436,2.7448,2.7447,2.7447,0,2.6867,2.6887,2.6947,2.6969,2.6995,2.7029,2.7054,2.7098,2.7123,2.7174,2.719,2.7232,2.7268,2.7328,2.737,2.741,2.7423,2.7423,2.7429,2.7418,2.7423,2.7422,2.7424,2.7421,2.7421,2.7421,2.742,0,2.6858,2.6878,2.6913,2.6956,2.6985,2.7021,2.7058,2.7074,2.7124,2.7151,2.7191,2.7219,2.7274,2.7315,2.7361,2.7389,2.7414,2.7419,2.7423,2.7412,2.7397,2.7406,2.7409,2.7418,2.7418,2.7418,2.7419,2.7419,2.6845,2.6865,2.6911,2.695,2.6982,2.7016,2.704,2.7076,2.711,2.7159,2.7182,2.7223,2.7267,2.7332,2.736,2.7393,2.74,2.7405,2.7407,2.7407,2.7405,2.7391,2.7401,2.7401,2.7401,2.7401,2.7402,0,2.6838,2.687,2.6905,2.6956,2.6987,2.7007,2.705,2.7074,2.711,2.7149,2.7184,2.7231,2.7272,2.7317,2.736,2.7378,2.739,2.7388,2.7387,2.7393,2.7396,2.7388,2.7377,2.7377,2.7377,2.7377,2.7377,2.7377,2.6838,2.6874,2.6899,2.6952,2.6984,2.7024,2.7047,2.7079,2.7111,2.7162,2.7196,2.7226,2.7268,2.7315,2.7353,2.7365,2.738,2.7374,2.739,2.7391,2.7393,2.7395,2.7388,2.7377,2.7377,2.7385,2.7385,2.7385]}]]